Epoch 2018 July 21.0 TT = JDT 2458320.5
T 2018 Aug. 1.80771 TT Rudenko
q 2.3134561 (2000.0) P Q
n 0.17655868 Peri. 325.47536 +0.98791164 +0.07098877
a 3.1468545 Node 31.33330 +0.02454811 +0.80612557
e 0.2648354 Incl. 15.36745 -0.15306201 +0.58747099
P 5.58
From 41 observations 2018 Aug. 8-2021 Mar. 14, mean residual 0".3.